Forside
METAR-TAF:

METAR-TAF

Lufthavne :

Delta County Airport

Escanaba, Michigan, USA

Breddekreds: 45-45N, længdekreds: 087-02W, højde: 180 m

Aktuelle vejr

Denne rapport blev lavet for 17 minutter siden, kl. 23:56 UTC
Vind 6 kt fra syd
Temperatur 20°C
Fugtighed 49%
Tryk 1017 hPa
Sigt: 16.1 km
skyfri

METAR: KESC 162356Z AUTO 19006KT 10SM CLR 20/09 A3003 RMK AO2 SLP173 6//// T02000094 10217 20200 56016 $

Tid: 20:13 (00:13 UTC)


TAF: fraværende

Vejrobservationer og prognoser fra mere end 4000 lufthavne (METAR og TAF).

De gule og røde prikker repræsenterer de meteorologiske stationer.

Flyt musen over at se navnet på stationen.

Så klik over at se vejr observationer og prognoser.

At skifte det kort: Klik på de grønne knapper med et sort kors for at zoome ind; på den grønne knap med en bindestreg for at zoome ud; eller på de grønne pile for tilstødende kort.


METAR-TAF: